CFG3C LFMN-LSZH

Flight info

Callsign CFG3C
Flight time N/A
Altitude 36000
Route DCT
Aircraft A321/M-SDE3FGHIRWY/LB1

Departure

Time N/A
Airport Nice-Côte d'Azur Airport (LFMN)

Arrival

Time 2026-04-26 19:31
Airport Zürich Airport (LSZH)
Time Latitude Longitude Altitude Speed Heading
2026-04-26 19:26 47.42641 8.85842 5685 ft 179 kts 327°
2026-04-26 19:26 47.43473 8.84541 5509 ft 175 kts 299°
2026-04-26 19:26 47.43810 8.82803 5197 ft 179 kts 276°
2026-04-26 19:26 47.43934 8.80977 4950 ft 176 kts 276°
2026-04-26 19:27 47.44057 8.79231 4677 ft 166 kts 276°
2026-04-26 19:27 47.44177 8.77572 4428 ft 160 kts 277°
2026-04-26 19:27 47.44296 8.75935 4191 ft 161 kts 278°
2026-04-26 19:27 47.44416 8.74286 3961 ft 160 kts 278°
2026-04-26 19:28 47.44534 8.72645 3720 ft 161 kts 278°
2026-04-26 19:28 47.44654 8.71000 3487 ft 161 kts 278°
2026-04-26 19:28 47.44772 8.69377 3269 ft 162 kts 278°
2026-04-26 19:28 47.44892 8.67731 3027 ft 162 kts 278°
2026-04-26 19:29 47.44992 8.66070 2840 ft 162 kts 276°
2026-04-26 19:29 47.45119 8.64437 2558 ft 158 kts 278°
2026-04-26 19:29 47.45245 8.62827 2319 ft 157 kts 275°
2026-04-26 19:29 47.45365 8.61204 2059 ft 161 kts 276°
2026-04-26 19:30 47.45473 8.59556 1819 ft 158 kts 276°
2026-04-26 19:30 47.45596 8.57957 1594 ft 153 kts 276°
2026-04-26 19:30 47.45702 8.56448 1409 ft 144 kts 276°
2026-04-26 19:30 47.45770 8.55591 1396 ft 112 kts 276°
2026-04-26 19:31 47.45828 8.54729 1399 ft 34 kts 269°
2026-04-26 19:31 47.45797 8.54397 1404 ft 31 kts 250°
2026-04-26 19:31 47.45702 8.54212 1402 ft 20 kts 201°
2026-04-26 19:31 47.45601 8.54318 1398 ft 19 kts 104°
2026-04-26 19:32 47.45564 8.54506 1393 ft 22 kts 108°
2026-04-26 19:32 47.45478 8.54898 1399 ft 56 kts 107°
2026-04-26 19:32 47.45386 8.55274 1406 ft 20 kts 120°
2026-04-26 19:32 47.45332 8.55412 1400 ft 18 kts 117°
2026-04-26 19:33 47.45284 8.55542 1400 ft 14 kts 115°
2026-04-26 19:33 47.45269 8.55672 1397 ft 11 kts 95°
2026-04-26 19:33 47.45263 8.55762 1397 ft 7 kts 97°
2026-04-26 19:33 47.45265 8.55823 1397 ft 4 kts 50°
2026-04-26 19:34 47.45293 8.55835 1397 ft 7 kts
2026-04-26 19:34 47.45316 8.55838 1397 ft 0 kts
2026-04-26 19:34 47.45324 8.55839 1397 ft 3 kts
2026-04-26 19:34 47.45332 8.55841 1402 ft 0 kts